Location: Unspecified
(44.0704°N, 88.6889°W)
Time: 17:05:48
(UTC+02:00)

Resurs 1-4 Rocket - Visible Passes

Search period start: 23 May 2018 00:00
Search period end: 02 June 2018 00:00
Orbit: 799 x 814 km, 98.5° (Epoch: 22 May)

Date Brightness Start Highest point End Pass type
(mag) Time Alt. Az. Time Alt. Az. Time Alt. Az.
23 May 2.2 09:55:07 10° NNE 10:00:26 75° ESE 10:03:10 30° S visible
23 May 3.9 11:36:22 10° NNW 11:39:39 17° WNW 11:42:56 10° W visible
24 May 2.8 09:30:42 10° NNE 09:35:48 45° E 09:38:20 27° SSE visible
24 May 3.4 11:11:03 10° N 11:15:22 26° WNW 11:19:25 11° WSW visible
25 May 3.6 09:06:32 10° NE 09:11:04 28° E 09:13:29 20° SE visible
25 May 2.8 10:46:03 10° N 10:50:59 41° WNW 10:54:34 18° SW visible
26 May 4.2 08:42:50 10° NE 08:46:14 17° E 08:48:39 13° ESE visible
26 May 2.2 10:21:15 10° N 10:26:31 66° WNW 10:29:44 24° SSW visible
27 May 2.2 09:56:38 10° NNE 10:01:58 78° ESE 10:04:54 28° S visible
27 May 4.0 11:37:58 10° NNW 11:41:10 16° WNW 11:44:21 10° W visible
28 May 2.8 09:32:12 10° NNE 09:37:20 47° E 09:40:03 25° SSE visible
28 May 3.4 11:12:36 10° N 11:16:53 25° WNW 11:21:08 10° WSW visible
29 May 3.5 09:08:01 10° NE 09:12:36 29° E 09:15:12 20° SE visible
29 May 2.8 10:47:35 10° N 10:52:30 39° WNW 10:56:18 16° SW visible
30 May 4.2 08:44:15 10° NE 08:47:47 18° E 08:50:22 13° ESE visible
30 May 2.2 10:22:47 10° N 10:28:03 64° WNW 10:31:26 22° SSW visible
31 May 4.6 08:22:30 10° E 08:22:51 10° E 08:23:13 10° E visible
31 May 2.1 09:58:09 10° NNE 10:03:29 80° ESE 10:06:35 26° S visible
01 Jun 2.7 09:33:42 10° NNE 09:38:52 49° E 09:41:44 25° SSE visible
01 Jun 3.5 11:14:10 10° N 11:18:23 25° WNW 11:22:36 10° WSW visible
